Year,Month,Day,Hour,Minute,Value (Times are PST for temperature in C)
2017,02,13,00,00,3.30
2017,02,13,00,01,3.30
2017,02,13,00,02,3.30
2017,02,13,00,03,3.30
2017,02,13,00,04,3.30
2017,02,13,00,05,3.30
2017,02,13,00,06,3.30
2017,02,13,00,07,3.30
2017,02,13,00,08,3.30
2017,02,13,00,09,3.30
2017,02,13,00,10,3.30
2017,02,13,00,11,3.30
2017,02,13,00,12,3.30
2017,02,13,00,13,3.30
2017,02,13,00,14,3.30
2017,02,13,00,15,3.30
2017,02,13,00,16,3.30
2017,02,13,00,17,3.30
2017,02,13,00,18,3.30
2017,02,13,00,19,3.30
2017,02,13,00,20,3.30
2017,02,13,00,21,3.30
2017,02,13,00,22,3.30
2017,02,13,00,23,3.30
2017,02,13,00,24,3.30
2017,02,13,00,25,3.30
2017,02,13,00,26,3.30
2017,02,13,00,27,3.30
2017,02,13,00,28,3.30
2017,02,13,00,29,3.20
2017,02,13,00,30,3.20
2017,02,13,00,31,3.20
2017,02,13,00,32,3.20
2017,02,13,00,33,3.20
2017,02,13,00,34,3.20
2017,02,13,00,35,3.20
2017,02,13,00,36,3.20
2017,02,13,00,37,3.20
2017,02,13,00,38,3.20
2017,02,13,00,39,3.20
2017,02,13,00,40,3.20
2017,02,13,00,41,3.20
2017,02,13,00,42,3.20
2017,02,13,00,43,3.20
2017,02,13,00,44,3.20
2017,02,13,00,45,3.20
2017,02,13,00,46,3.20
2017,02,13,00,47,3.20
2017,02,13,00,48,3.20
2017,02,13,00,49,3.20
2017,02,13,00,50,3.20
2017,02,13,00,51,3.20
2017,02,13,00,52,3.20
2017,02,13,00,53,3.20
2017,02,13,00,54,3.20
2017,02,13,00,55,3.20
2017,02,13,00,56,3.20
2017,02,13,00,57,3.10
2017,02,13,00,58,3.10
2017,02,13,00,59,3.10
2017,02,13,01,00,3.10
2017,02,13,01,01,3.10
2017,02,13,01,02,3.10
2017,02,13,01,03,3.10
2017,02,13,01,04,3.10
2017,02,13,01,05,3.10
2017,02,13,01,06,3.10
2017,02,13,01,07,3.10
2017,02,13,01,08,3.10
2017,02,13,01,09,3.10
2017,02,13,01,10,3.10
2017,02,13,01,11,3.10
2017,02,13,01,12,3.10
2017,02,13,01,13,3.00
2017,02,13,01,14,3.00
2017,02,13,01,15,3.00
2017,02,13,01,16,3.00
2017,02,13,01,17,3.00
2017,02,13,01,18,3.00
2017,02,13,01,19,2.90
2017,02,13,01,20,2.90
2017,02,13,01,21,2.90
2017,02,13,01,22,2.90
2017,02,13,01,23,2.90
2017,02,13,01,24,2.90
2017,02,13,01,25,2.90
2017,02,13,01,26,2.90
2017,02,13,01,27,2.90
2017,02,13,01,28,2.80
2017,02,13,01,29,2.80
2017,02,13,01,30,2.80
2017,02,13,01,31,2.80
2017,02,13,01,32,2.80
2017,02,13,01,33,2.80
2017,02,13,01,34,2.80
2017,02,13,01,35,2.80
2017,02,13,01,36,2.80
2017,02,13,01,37,2.80
2017,02,13,01,38,2.80
2017,02,13,01,39,2.80
2017,02,13,01,40,2.80
2017,02,13,01,41,2.80
2017,02,13,01,42,2.80
2017,02,13,01,43,2.80
2017,02,13,01,44,2.80
2017,02,13,01,45,2.80
2017,02,13,01,46,2.80
2017,02,13,01,47,2.80
2017,02,13,01,48,2.80
2017,02,13,01,49,2.80
2017,02,13,01,50,2.80
2017,02,13,01,51,2.80
2017,02,13,01,52,2.80
2017,02,13,01,53,2.80
2017,02,13,01,54,2.80
2017,02,13,01,55,2.80
2017,02,13,01,56,2.80
2017,02,13,01,57,2.80
2017,02,13,01,58,2.80
2017,02,13,01,59,2.70
2017,02,13,02,00,2.70
2017,02,13,02,01,2.70
2017,02,13,02,02,2.70
2017,02,13,02,03,2.70
2017,02,13,02,04,2.70
2017,02,13,02,05,2.70
2017,02,13,02,06,2.70
2017,02,13,02,07,2.70
2017,02,13,02,08,2.70
2017,02,13,02,09,2.70
2017,02,13,02,10,2.70
2017,02,13,02,11,2.80
2017,02,13,02,12,2.80
2017,02,13,02,13,2.80
2017,02,13,02,14,2.80
2017,02,13,02,15,2.80
2017,02,13,02,16,2.80
2017,02,13,02,17,2.80
2017,02,13,02,18,2.80
2017,02,13,02,19,2.80
2017,02,13,02,20,2.80
2017,02,13,02,21,2.80
2017,02,13,02,22,2.80
2017,02,13,02,23,2.80
2017,02,13,02,24,2.80
2017,02,13,02,25,2.70
2017,02,13,02,26,2.70
2017,02,13,02,27,2.70
2017,02,13,02,28,2.70
2017,02,13,02,29,2.70
2017,02,13,02,30,2.70
2017,02,13,02,31,2.60
2017,02,13,02,32,2.60
2017,02,13,02,33,2.60
2017,02,13,02,34,2.60
2017,02,13,02,35,2.60
2017,02,13,02,36,2.50
2017,02,13,02,37,2.50
2017,02,13,02,38,2.50
2017,02,13,02,39,2.50
2017,02,13,02,40,2.50
2017,02,13,02,41,2.50
2017,02,13,02,42,2.40
2017,02,13,02,43,2.40
2017,02,13,02,44,2.40
2017,02,13,02,45,2.40
2017,02,13,02,46,2.40
2017,02,13,02,47,2.30
2017,02,13,02,48,2.30
2017,02,13,02,49,2.30
2017,02,13,02,50,2.30
2017,02,13,02,51,2.30
2017,02,13,02,52,2.30
2017,02,13,02,53,2.30
2017,02,13,02,54,2.30
2017,02,13,02,55,2.30
2017,02,13,02,56,2.20
2017,02,13,02,57,2.20
2017,02,13,02,58,2.20
2017,02,13,02,59,2.20
2017,02,13,03,00,2.20
2017,02,13,03,01,2.20
2017,02,13,03,02,2.20
2017,02,13,03,03,2.20
2017,02,13,03,04,2.20
2017,02,13,03,05,2.20
2017,02,13,03,06,2.20
2017,02,13,03,07,2.20
2017,02,13,03,08,2.20
2017,02,13,03,09,2.20
2017,02,13,03,10,2.20
2017,02,13,03,11,2.20
2017,02,13,03,12,2.20
2017,02,13,03,13,2.20
2017,02,13,03,14,2.20
2017,02,13,03,15,2.20
2017,02,13,03,16,2.20
2017,02,13,03,17,2.20
2017,02,13,03,18,2.10
2017,02,13,03,19,2.10
2017,02,13,03,20,2.10
2017,02,13,03,21,2.10
2017,02,13,03,22,2.10
2017,02,13,03,23,2.10
2017,02,13,03,24,2.10
2017,02,13,03,25,2.10
2017,02,13,03,26,2.00
2017,02,13,03,27,2.00
2017,02,13,03,28,2.00
2017,02,13,03,29,1.90
2017,02,13,03,30,1.90
2017,02,13,03,31,1.90
2017,02,13,03,32,1.90
2017,02,13,03,33,1.90
2017,02,13,03,34,1.90
2017,02,13,03,35,1.90
2017,02,13,03,36,1.90
2017,02,13,03,37,2.00
2017,02,13,03,38,2.00
2017,02,13,03,39,2.00
2017,02,13,03,40,2.00
2017,02,13,03,41,2.10
2017,02,13,03,42,2.10
2017,02,13,03,43,2.10
2017,02,13,03,44,2.10
2017,02,13,03,45,2.10
2017,02,13,03,46,2.10
2017,02,13,03,47,2.10
2017,02,13,03,48,2.10
2017,02,13,03,49,2.10
2017,02,13,03,50,2.00
2017,02,13,03,51,2.10
2017,02,13,03,52,2.10
2017,02,13,03,53,2.10
2017,02,13,03,54,2.10
2017,02,13,03,55,2.10
2017,02,13,03,56,2.10
2017,02,13,03,57,2.10
2017,02,13,03,58,2.00
2017,02,13,03,59,2.00
2017,02,13,04,00,2.00
2017,02,13,04,01,2.00
2017,02,13,04,02,2.00
2017,02,13,04,03,2.00
2017,02,13,04,04,2.10
2017,02,13,04,05,2.10
2017,02,13,04,06,2.10
2017,02,13,04,07,2.10
2017,02,13,04,08,2.10
2017,02,13,04,09,2.00
2017,02,13,04,10,2.00
2017,02,13,04,11,2.00
2017,02,13,04,12,2.00
2017,02,13,04,13,2.00
2017,02,13,04,14,1.90
2017,02,13,04,15,1.90
2017,02,13,04,16,1.90
2017,02,13,04,17,1.90
2017,02,13,04,18,1.90
2017,02,13,04,19,1.80
2017,02,13,04,20,1.80
2017,02,13,04,21,1.80
2017,02,13,04,22,1.80
2017,02,13,04,23,1.80
2017,02,13,04,24,1.80
2017,02,13,04,25,1.80
2017,02,13,04,26,1.80
2017,02,13,04,27,1.80
2017,02,13,04,28,1.70
2017,02,13,04,29,1.70
2017,02,13,04,30,1.70
2017,02,13,04,31,1.70
2017,02,13,04,32,1.70
2017,02,13,04,33,1.70
2017,02,13,04,34,1.70
2017,02,13,04,35,1.70
2017,02,13,04,36,1.70
2017,02,13,04,37,1.70
2017,02,13,04,38,1.60
2017,02,13,04,39,1.60
2017,02,13,04,40,1.60
2017,02,13,04,41,1.60
2017,02,13,04,42,1.60
2017,02,13,04,43,1.60
2017,02,13,04,44,1.60
2017,02,13,04,45,1.60
2017,02,13,04,46,1.60
2017,02,13,04,47,1.60
2017,02,13,04,48,1.60
2017,02,13,04,49,1.60
2017,02,13,04,50,1.60
2017,02,13,04,51,1.60
2017,02,13,04,52,1.60
2017,02,13,04,53,1.60
2017,02,13,04,54,1.60
2017,02,13,04,55,1.60
2017,02,13,04,56,1.50
2017,02,13,04,57,1.50
2017,02,13,04,58,1.50
2017,02,13,04,59,1.50
2017,02,13,05,00,1.50
2017,02,13,05,01,1.50
2017,02,13,05,02,1.50
2017,02,13,05,03,1.50
2017,02,13,05,04,1.40
2017,02,13,05,05,1.40
2017,02,13,05,06,1.40
2017,02,13,05,07,1.40
2017,02,13,05,08,1.40
2017,02,13,05,09,1.50
2017,02,13,05,10,1.50
2017,02,13,05,11,1.50
2017,02,13,05,12,1.50
2017,02,13,05,13,1.60
2017,02,13,05,14,1.60
2017,02,13,05,15,1.60
2017,02,13,05,16,1.60
2017,02,13,05,17,1.60
2017,02,13,05,18,1.60
2017,02,13,05,19,1.50
2017,02,13,05,20,1.50
2017,02,13,05,21,1.50
2017,02,13,05,22,1.40
2017,02,13,05,23,1.40
2017,02,13,05,24,1.40
2017,02,13,05,25,1.40
2017,02,13,05,26,1.30
2017,02,13,05,27,1.30
2017,02,13,05,28,1.30
2017,02,13,05,29,1.30
2017,02,13,05,30,1.30
2017,02,13,05,31,1.30
2017,02,13,05,32,1.30
2017,02,13,05,33,1.30
2017,02,13,05,34,1.20
2017,02,13,05,35,1.20
2017,02,13,05,36,1.20
2017,02,13,05,37,1.20
2017,02,13,05,38,1.20
2017,02,13,05,39,1.20
2017,02,13,05,40,1.20
2017,02,13,05,41,1.20
2017,02,13,05,42,1.20
2017,02,13,05,43,1.30
2017,02,13,05,44,1.30
2017,02,13,05,45,1.30
2017,02,13,05,46,1.30
2017,02,13,05,47,1.30
2017,02,13,05,48,1.20
2017,02,13,05,49,1.20
2017,02,13,05,50,1.20
2017,02,13,05,51,1.20
2017,02,13,05,52,1.20
2017,02,13,05,53,1.20
2017,02,13,05,54,1.20
2017,02,13,05,55,1.20
2017,02,13,05,56,1.20
2017,02,13,05,57,1.20
2017,02,13,05,58,1.20
2017,02,13,05,59,1.20
2017,02,13,06,00,1.20
2017,02,13,06,01,1.20
2017,02,13,06,02,1.20
2017,02,13,06,03,1.10
2017,02,13,06,04,1.10
2017,02,13,06,05,1.10
2017,02,13,06,06,1.10
2017,02,13,06,07,1.10
2017,02,13,06,08,1.10
2017,02,13,06,09,1.10
2017,02,13,06,10,1.10
2017,02,13,06,11,1.10
2017,02,13,06,12,1.10
2017,02,13,06,13,1.10
2017,02,13,06,14,1.10
2017,02,13,06,15,1.10
2017,02,13,06,16,1.10
2017,02,13,06,17,1.00
2017,02,13,06,18,1.00
2017,02,13,06,19,1.00
2017,02,13,06,20,1.00
2017,02,13,06,21,1.00
2017,02,13,06,22,1.00
2017,02,13,06,23,0.90
2017,02,13,06,24,0.90
2017,02,13,06,25,0.90
2017,02,13,06,26,0.90
2017,02,13,06,27,0.90
2017,02,13,06,28,0.90
2017,02,13,06,29,0.90
2017,02,13,06,30,0.90
2017,02,13,06,31,0.90
2017,02,13,06,32,0.90
2017,02,13,06,33,0.90
2017,02,13,06,34,0.90
2017,02,13,06,35,0.90
2017,02,13,06,36,1.00
2017,02,13,06,37,1.00
2017,02,13,06,38,1.00
2017,02,13,06,39,1.00
2017,02,13,06,40,1.00
2017,02,13,06,41,1.00
2017,02,13,06,42,1.00
2017,02,13,06,43,1.00
2017,02,13,06,44,1.10
2017,02,13,06,45,1.10
2017,02,13,06,46,1.10
2017,02,13,06,47,1.10
2017,02,13,06,48,1.10
2017,02,13,06,49,1.10
2017,02,13,06,50,1.10
2017,02,13,06,51,1.00
2017,02,13,06,52,1.00
2017,02,13,06,53,1.00
2017,02,13,06,54,1.00
2017,02,13,06,55,1.00
2017,02,13,06,56,1.00
2017,02,13,06,57,1.00
2017,02,13,06,58,1.00
2017,02,13,06,59,1.00
2017,02,13,07,00,0.90
2017,02,13,07,01,0.90
2017,02,13,07,02,0.90
2017,02,13,07,03,1.00
2017,02,13,07,04,1.00
2017,02,13,07,05,1.00
2017,02,13,07,06,0.90
2017,02,13,07,07,0.90
2017,02,13,07,08,0.90
2017,02,13,07,09,0.90
2017,02,13,07,10,0.90
2017,02,13,07,11,0.90
2017,02,13,07,12,0.90
2017,02,13,07,13,0.90
2017,02,13,07,14,0.90
2017,02,13,07,15,0.90
2017,02,13,07,16,0.90
2017,02,13,07,17,0.90
2017,02,13,07,18,0.90
2017,02,13,07,19,0.90
2017,02,13,07,20,0.90
2017,02,13,07,21,0.90
2017,02,13,07,22,0.90
2017,02,13,07,23,0.90
2017,02,13,07,24,0.80
2017,02,13,07,25,0.80
2017,02,13,07,26,0.80
2017,02,13,07,27,0.80
2017,02,13,07,28,0.80
2017,02,13,07,29,0.80
2017,02,13,07,30,0.80
2017,02,13,07,31,0.80
2017,02,13,07,32,0.80
2017,02,13,07,33,0.80
2017,02,13,07,34,0.80
2017,02,13,07,35,0.80
2017,02,13,07,36,0.80
2017,02,13,07,37,0.80
2017,02,13,07,38,0.80
2017,02,13,07,39,0.80
2017,02,13,07,40,0.80
2017,02,13,07,41,0.80
2017,02,13,07,42,0.80
2017,02,13,07,43,0.80
2017,02,13,07,44,0.90
2017,02,13,07,45,0.90
2017,02,13,07,46,0.90
2017,02,13,07,47,0.90
2017,02,13,07,48,0.90
2017,02,13,07,49,0.90
2017,02,13,07,50,0.90
2017,02,13,07,51,0.90
2017,02,13,07,52,0.90
2017,02,13,07,53,0.90
2017,02,13,07,54,0.90
2017,02,13,07,55,0.90
2017,02,13,07,56,0.90
2017,02,13,07,57,0.90
2017,02,13,07,58,0.90
2017,02,13,07,59,0.90
2017,02,13,08,00,0.90
2017,02,13,08,01,0.90
2017,02,13,08,02,0.90
2017,02,13,08,03,0.90
2017,02,13,08,04,0.90
2017,02,13,08,05,0.90
2017,02,13,08,06,0.90
2017,02,13,08,07,0.90
2017,02,13,08,08,0.90
2017,02,13,08,09,0.90
2017,02,13,08,10,0.90
2017,02,13,08,11,1.00
2017,02,13,08,12,1.00
2017,02,13,08,13,1.10
2017,02,13,08,14,1.10
2017,02,13,08,15,1.20
2017,02,13,08,16,1.20
2017,02,13,08,17,1.20
2017,02,13,08,18,1.30
2017,02,13,08,19,1.30
2017,02,13,08,20,1.30
2017,02,13,08,21,1.30
2017,02,13,08,22,1.30
2017,02,13,08,23,1.40
2017,02,13,08,24,1.40
2017,02,13,08,25,1.40
2017,02,13,08,26,1.40
2017,02,13,08,27,1.50
2017,02,13,08,28,1.50
2017,02,13,08,29,1.50
2017,02,13,08,30,1.60
2017,02,13,08,31,1.60
2017,02,13,08,32,1.60
2017,02,13,08,33,1.60
2017,02,13,08,34,1.70
2017,02,13,08,35,1.70
2017,02,13,08,36,1.70
2017,02,13,08,37,1.70
2017,02,13,08,38,1.70
2017,02,13,08,39,1.70
2017,02,13,08,40,1.80
2017,02,13,08,41,1.80
2017,02,13,08,42,1.80
2017,02,13,08,43,1.80
2017,02,13,08,44,1.80
2017,02,13,08,45,1.80
2017,02,13,08,46,1.90
2017,02,13,08,47,1.90
2017,02,13,08,48,1.90
2017,02,13,08,49,1.90
2017,02,13,08,50,1.90
2017,02,13,08,51,2.00
2017,02,13,08,52,2.00
2017,02,13,08,53,2.10
2017,02,13,08,54,2.10
2017,02,13,08,55,2.10
2017,02,13,08,56,2.10
2017,02,13,08,57,2.20
2017,02,13,08,58,2.20
2017,02,13,08,59,2.20
2017,02,13,09,00,2.30
2017,02,13,09,01,2.30
2017,02,13,09,02,2.30
2017,02,13,09,03,2.30
2017,02,13,09,04,2.40
2017,02,13,09,05,2.40
2017,02,13,09,06,2.40
2017,02,13,09,07,2.50
2017,02,13,09,08,2.50
2017,02,13,09,09,2.50
2017,02,13,09,10,2.60
2017,02,13,09,11,2.60
2017,02,13,09,12,2.70
2017,02,13,09,13,2.70
2017,02,13,09,14,2.80
2017,02,13,09,15,2.80
2017,02,13,09,16,2.90
2017,02,13,09,17,2.90
2017,02,13,09,18,3.00
2017,02,13,09,19,3.00
2017,02,13,09,20,3.10
2017,02,13,09,21,3.20
2017,02,13,09,22,3.20
2017,02,13,09,23,3.30
2017,02,13,09,24,3.30
2017,02,13,09,25,3.30
2017,02,13,09,26,3.40
2017,02,13,09,27,3.40
2017,02,13,09,28,3.50
2017,02,13,09,29,3.50
2017,02,13,09,30,3.60
2017,02,13,09,31,3.60
2017,02,13,09,32,3.70
2017,02,13,09,33,3.70
2017,02,13,09,34,3.80
2017,02,13,09,35,3.90
2017,02,13,09,36,4.00
2017,02,13,09,37,4.00
2017,02,13,09,38,4.00
2017,02,13,09,39,4.00
2017,02,13,09,40,4.00
2017,02,13,09,41,4.00
2017,02,13,09,42,4.00
2017,02,13,09,43,4.00
2017,02,13,09,44,4.00
2017,02,13,09,45,4.00
2017,02,13,09,46,4.00
2017,02,13,09,47,4.00
2017,02,13,09,48,4.00
2017,02,13,09,49,4.10
2017,02,13,09,50,4.10
2017,02,13,09,51,4.20
2017,02,13,09,52,4.20
2017,02,13,09,53,4.20
2017,02,13,09,54,4.20
2017,02,13,09,55,4.20
2017,02,13,09,56,4.20
2017,02,13,09,57,4.30
2017,02,13,09,58,4.30
2017,02,13,09,59,4.30
2017,02,13,10,00,4.40
2017,02,13,10,01,4.40
2017,02,13,10,02,4.50
2017,02,13,10,03,4.50
2017,02,13,10,04,4.60
2017,02,13,10,05,4.60
2017,02,13,10,06,4.70
2017,02,13,10,07,4.70
2017,02,13,10,08,4.80
2017,02,13,10,09,4.90
2017,02,13,10,10,5.00
2017,02,13,10,11,5.00
2017,02,13,10,12,5.10
2017,02,13,10,13,5.10
2017,02,13,10,14,5.10
2017,02,13,10,15,5.10
2017,02,13,10,16,5.20
2017,02,13,10,17,5.20
2017,02,13,10,18,5.30
2017,02,13,10,19,5.30
2017,02,13,10,20,5.30
2017,02,13,10,21,5.30
2017,02,13,10,22,5.30
2017,02,13,10,23,5.30
2017,02,13,10,24,5.40
2017,02,13,10,25,5.40
2017,02,13,10,26,5.30
2017,02,13,10,27,5.30
2017,02,13,10,28,5.30
2017,02,13,10,29,5.30
2017,02,13,10,30,5.30
2017,02,13,10,31,5.40
2017,02,13,10,32,5.40
2017,02,13,10,33,5.50
2017,02,13,10,34,5.60
2017,02,13,10,35,5.60
2017,02,13,10,36,5.70
2017,02,13,10,37,5.80
2017,02,13,10,38,5.90
2017,02,13,10,39,5.90
2017,02,13,10,40,5.90
2017,02,13,10,41,6.00
2017,02,13,10,42,6.10
2017,02,13,10,43,6.20
2017,02,13,10,44,6.20
2017,02,13,10,45,6.30
2017,02,13,10,46,6.40
2017,02,13,10,47,6.40
2017,02,13,10,48,6.50
2017,02,13,10,49,6.60
2017,02,13,10,50,6.60
2017,02,13,10,51,6.60
2017,02,13,10,52,6.60
2017,02,13,10,53,6.70
2017,02,13,10,54,6.70
2017,02,13,10,55,6.70
2017,02,13,10,56,6.70
2017,02,13,10,57,6.80
2017,02,13,10,58,6.70
2017,02,13,10,59,6.70
2017,02,13,11,00,6.70
2017,02,13,11,01,6.60
2017,02,13,11,02,6.60
2017,02,13,11,03,6.60
2017,02,13,11,04,6.60
2017,02,13,11,05,6.60
2017,02,13,11,06,6.60
2017,02,13,11,07,6.60
2017,02,13,11,08,6.70
2017,02,13,11,09,6.70
2017,02,13,11,10,6.80
2017,02,13,11,11,6.80
2017,02,13,11,12,6.90
2017,02,13,11,13,6.90
2017,02,13,11,14,7.00
2017,02,13,11,15,7.10
2017,02,13,11,16,7.10
2017,02,13,11,17,7.20
2017,02,13,11,18,7.20
2017,02,13,11,19,7.20
2017,02,13,11,20,7.20
2017,02,13,11,21,7.20
2017,02,13,11,22,7.20
2017,02,13,11,23,7.30
2017,02,13,11,24,7.30
2017,02,13,11,25,7.30
2017,02,13,11,26,7.30
2017,02,13,11,27,7.30
2017,02,13,11,28,7.30
2017,02,13,11,29,7.40
2017,02,13,11,30,7.40
2017,02,13,11,31,7.40
2017,02,13,11,32,7.50
2017,02,13,11,33,7.50
2017,02,13,11,34,7.60
2017,02,13,11,35,7.60
2017,02,13,11,36,7.60
2017,02,13,11,37,7.60
2017,02,13,11,38,7.70
2017,02,13,11,39,7.70
2017,02,13,11,40,7.70
2017,02,13,11,41,7.80
2017,02,13,11,42,7.90
2017,02,13,11,43,8.10
2017,02,13,11,44,8.20
2017,02,13,11,45,8.30
2017,02,13,11,46,8.50
2017,02,13,11,47,8.60
2017,02,13,11,48,8.60
2017,02,13,11,49,8.60
2017,02,13,11,50,8.60
2017,02,13,11,51,8.60
2017,02,13,11,52,8.50
2017,02,13,11,53,8.50
2017,02,13,11,54,8.50
2017,02,13,11,55,8.50
2017,02,13,11,56,8.50
2017,02,13,11,57,8.50
2017,02,13,11,58,8.50
2017,02,13,11,59,8.60
2017,02,13,12,00,8.60
2017,02,13,12,01,8.60
2017,02,13,12,02,8.70
2017,02,13,12,03,8.70
2017,02,13,12,04,8.80
2017,02,13,12,05,8.80
2017,02,13,12,06,8.80
2017,02,13,12,07,8.80
2017,02,13,12,08,8.80
2017,02,13,12,09,8.80
2017,02,13,12,10,8.80
2017,02,13,12,11,8.70
2017,02,13,12,12,8.70
2017,02,13,12,13,8.70
2017,02,13,12,14,8.70
2017,02,13,12,15,8.70
2017,02,13,12,16,8.70
2017,02,13,12,17,8.70
2017,02,13,12,18,8.70
2017,02,13,12,19,8.60
2017,02,13,12,20,8.60
2017,02,13,12,21,8.50
2017,02,13,12,22,8.40
2017,02,13,12,23,8.40
2017,02,13,12,24,8.30
2017,02,13,12,25,8.20
2017,02,13,12,26,8.20
2017,02,13,12,27,8.10
2017,02,13,12,28,8.10
2017,02,13,12,29,8.10
2017,02,13,12,30,8.20
2017,02,13,12,31,8.20
2017,02,13,12,32,8.30
2017,02,13,12,33,8.30
2017,02,13,12,34,8.40
2017,02,13,12,35,8.50
2017,02,13,12,36,8.60
2017,02,13,12,37,8.60
2017,02,13,12,38,8.70
2017,02,13,12,39,8.70
2017,02,13,12,40,8.70
2017,02,13,12,41,8.70
2017,02,13,12,42,8.70
2017,02,13,12,43,8.70
2017,02,13,12,44,8.60
2017,02,13,12,45,8.60
2017,02,13,12,46,8.60
2017,02,13,12,47,8.70
2017,02,13,12,48,8.70
2017,02,13,12,49,8.80
2017,02,13,12,50,8.80
2017,02,13,12,51,8.90
2017,02,13,12,52,9.00
2017,02,13,12,53,9.10
2017,02,13,12,54,9.20
2017,02,13,12,55,9.20
2017,02,13,12,56,9.20
2017,02,13,12,57,9.30
2017,02,13,12,58,9.30
2017,02,13,12,59,9.30
2017,02,13,13,00,9.40
2017,02,13,13,01,9.40
2017,02,13,13,02,9.40
2017,02,13,13,03,9.40
2017,02,13,13,04,9.40
2017,02,13,13,05,9.40
2017,02,13,13,06,9.40
2017,02,13,13,07,9.40
2017,02,13,13,08,9.40
2017,02,13,13,09,9.40
2017,02,13,13,10,9.40
2017,02,13,13,11,9.40
2017,02,13,13,12,9.40
2017,02,13,13,13,9.40
2017,02,13,13,14,9.40
2017,02,13,13,15,9.30
2017,02,13,13,16,9.30
2017,02,13,13,17,9.30
2017,02,13,13,18,9.30
2017,02,13,13,19,9.40
2017,02,13,13,20,9.40
2017,02,13,13,21,9.50
2017,02,13,13,22,9.50
2017,02,13,13,23,9.50
2017,02,13,13,24,9.40
2017,02,13,13,25,9.40
2017,02,13,13,26,9.40
2017,02,13,13,27,9.30
2017,02,13,13,28,9.30
2017,02,13,13,29,9.30
2017,02,13,13,30,9.30
2017,02,13,13,31,9.30
2017,02,13,13,32,9.30
2017,02,13,13,33,9.30
2017,02,13,13,34,9.30
2017,02,13,13,35,9.30
2017,02,13,13,36,9.30
2017,02,13,13,37,9.30
2017,02,13,13,38,9.30
2017,02,13,13,39,9.30
2017,02,13,13,40,9.30
2017,02,13,13,41,9.30
2017,02,13,13,42,9.30
2017,02,13,13,43,9.30
2017,02,13,13,44,9.30
2017,02,13,13,45,9.30
2017,02,13,13,46,9.30
2017,02,13,13,47,9.30
2017,02,13,13,48,9.30
2017,02,13,13,49,9.30
2017,02,13,13,50,9.40
2017,02,13,13,51,9.40
2017,02,13,13,52,9.50
2017,02,13,13,53,9.50
2017,02,13,13,54,9.50
2017,02,13,13,55,9.60
2017,02,13,13,56,9.60
2017,02,13,13,57,9.60
2017,02,13,13,58,9.60
2017,02,13,13,59,9.70
2017,02,13,14,00,9.70
2017,02,13,14,01,9.80
2017,02,13,14,02,9.80
2017,02,13,14,03,9.70
2017,02,13,14,04,9.70
2017,02,13,14,05,9.70
2017,02,13,14,06,9.60
2017,02,13,14,07,9.60
2017,02,13,14,08,9.50
2017,02,13,14,09,9.50
2017,02,13,14,10,9.50
2017,02,13,14,11,9.40
2017,02,13,14,12,9.40
2017,02,13,14,13,9.40
2017,02,13,14,14,9.40
2017,02,13,14,15,9.40
2017,02,13,14,16,9.40
2017,02,13,14,17,9.50
2017,02,13,14,18,9.50
2017,02,13,14,19,9.50
2017,02,13,14,20,9.60
2017,02,13,14,21,9.60
2017,02,13,14,22,9.60
2017,02,13,14,23,9.70
2017,02,13,14,24,9.70
2017,02,13,14,25,9.80
2017,02,13,14,26,9.80
2017,02,13,14,27,9.90
2017,02,13,14,28,9.90
2017,02,13,14,29,9.90
2017,02,13,14,30,10.00
2017,02,13,14,31,10.00
2017,02,13,14,32,10.10
2017,02,13,14,33,10.20
2017,02,13,14,34,10.20
2017,02,13,14,35,10.30
2017,02,13,14,36,10.40
2017,02,13,14,37,10.50
2017,02,13,14,38,10.60
2017,02,13,14,39,10.60
2017,02,13,14,40,10.60
2017,02,13,14,41,10.60
2017,02,13,14,42,10.50
2017,02,13,14,43,10.50
2017,02,13,14,44,10.50
2017,02,13,14,45,10.40
2017,02,13,14,46,10.40
2017,02,13,14,47,10.40
2017,02,13,14,48,10.40
2017,02,13,14,49,10.40
2017,02,13,14,50,10.40
2017,02,13,14,51,10.30
2017,02,13,14,52,10.30
2017,02,13,14,53,10.20
2017,02,13,14,54,10.10
2017,02,13,14,55,10.10
2017,02,13,14,56,10.10
2017,02,13,14,57,10.10
2017,02,13,14,58,10.00
2017,02,13,14,59,10.00
2017,02,13,15,00,9.90
2017,02,13,15,01,9.80
2017,02,13,15,02,9.80
2017,02,13,15,03,9.80
2017,02,13,15,04,9.70
2017,02,13,15,05,9.60
2017,02,13,15,06,9.50
2017,02,13,15,07,9.40
2017,02,13,15,08,9.30
2017,02,13,15,09,9.20
2017,02,13,15,10,9.10
2017,02,13,15,11,8.90
2017,02,13,15,12,8.80
2017,02,13,15,13,8.70
2017,02,13,15,14,8.50
2017,02,13,15,15,8.50
2017,02,13,15,16,8.40
2017,02,13,15,17,8.30
2017,02,13,15,18,8.20
2017,02,13,15,19,8.20
2017,02,13,15,20,8.20
2017,02,13,15,21,8.20
2017,02,13,15,22,8.10
2017,02,13,15,23,8.20
2017,02,13,15,24,8.10
2017,02,13,15,25,8.10
2017,02,13,15,26,8.10
2017,02,13,15,27,8.00
2017,02,13,15,28,7.90
2017,02,13,15,29,7.90
2017,02,13,15,30,7.90
2017,02,13,15,31,7.90
2017,02,13,15,32,7.90
2017,02,13,15,33,7.80
2017,02,13,15,34,7.80
2017,02,13,15,35,7.80
2017,02,13,15,36,7.80
2017,02,13,15,37,7.80
2017,02,13,15,38,7.80
2017,02,13,15,39,7.80
2017,02,13,15,40,7.80
2017,02,13,15,41,7.80
2017,02,13,15,42,7.80
2017,02,13,15,43,7.80
2017,02,13,15,44,7.90
2017,02,13,15,45,7.90
2017,02,13,15,46,7.90
2017,02,13,15,47,7.90
2017,02,13,15,48,7.90
2017,02,13,15,49,7.90
2017,02,13,15,50,8.00
2017,02,13,15,51,8.00
2017,02,13,15,52,8.00
2017,02,13,15,53,8.00
2017,02,13,15,54,8.00
2017,02,13,15,55,8.00
2017,02,13,15,56,8.00
2017,02,13,15,57,8.00
2017,02,13,15,58,8.10
2017,02,13,15,59,8.10
2017,02,13,16,00,8.10
2017,02,13,16,01,8.10
2017,02,13,16,02,8.10
2017,02,13,16,03,8.10
2017,02,13,16,04,8.10
2017,02,13,16,05,8.10
2017,02,13,16,06,8.10
2017,02,13,16,07,8.10
2017,02,13,16,08,8.10
2017,02,13,16,09,8.10
2017,02,13,16,10,8.10
2017,02,13,16,11,8.10
2017,02,13,16,12,8.10
2017,02,13,16,13,8.10
2017,02,13,16,14,8.10
2017,02,13,16,15,8.10
2017,02,13,16,16,8.10
2017,02,13,16,17,8.10
2017,02,13,16,18,8.10
2017,02,13,16,19,8.10
2017,02,13,16,20,8.10
2017,02,13,16,21,8.10
2017,02,13,16,22,8.10
2017,02,13,16,23,8.10
2017,02,13,16,24,8.00
2017,02,13,16,25,8.00
2017,02,13,16,26,8.00
2017,02,13,16,27,8.00
2017,02,13,16,28,7.90
2017,02,13,16,29,7.90
2017,02,13,16,30,7.90
2017,02,13,16,31,7.90
2017,02,13,16,32,7.90
2017,02,13,16,33,7.90
2017,02,13,16,34,7.90
2017,02,13,16,35,7.90
2017,02,13,16,36,7.90
2017,02,13,16,37,7.90
2017,02,13,16,38,7.90
2017,02,13,16,39,7.90
2017,02,13,16,40,7.80
2017,02,13,16,41,7.80
2017,02,13,16,42,7.80
2017,02,13,16,43,7.80
2017,02,13,16,44,7.80
2017,02,13,16,45,7.80
2017,02,13,16,46,7.70
2017,02,13,16,47,7.70
2017,02,13,16,48,7.70
2017,02,13,16,49,7.70
2017,02,13,16,50,7.70
2017,02,13,16,51,7.70
2017,02,13,16,52,7.60
2017,02,13,16,53,7.60
2017,02,13,16,54,7.60
2017,02,13,16,55,7.50
2017,02,13,16,56,7.50
2017,02,13,16,57,7.40
2017,02,13,16,58,7.40
2017,02,13,16,59,7.40
2017,02,13,17,00,7.40
2017,02,13,17,01,7.30
2017,02,13,17,02,7.30
2017,02,13,17,03,7.30
2017,02,13,17,04,7.30
2017,02,13,17,05,7.30
2017,02,13,17,06,7.20
2017,02,13,17,07,7.20
2017,02,13,17,08,7.20
2017,02,13,17,09,7.20
2017,02,13,17,10,7.10
2017,02,13,17,11,7.10
2017,02,13,17,12,7.10
2017,02,13,17,13,7.10
2017,02,13,17,14,7.10
2017,02,13,17,15,7.00
2017,02,13,17,16,7.00
2017,02,13,17,17,6.90
2017,02,13,17,18,6.90
2017,02,13,17,19,6.90
2017,02,13,17,20,6.90
2017,02,13,17,21,6.90
2017,02,13,17,22,6.80
2017,02,13,17,23,6.80
2017,02,13,17,24,6.80
2017,02,13,17,25,6.80
2017,02,13,17,26,6.70
2017,02,13,17,27,6.70
2017,02,13,17,28,6.70
2017,02,13,17,29,6.70
2017,02,13,17,30,6.70
2017,02,13,17,31,6.60
2017,02,13,17,32,6.60
2017,02,13,17,33,6.60
2017,02,13,17,34,6.60
2017,02,13,17,35,6.60
2017,02,13,17,36,6.60
2017,02,13,17,37,6.60
2017,02,13,17,38,6.60
2017,02,13,17,39,6.60
2017,02,13,17,40,6.60
2017,02,13,17,41,6.60
2017,02,13,17,42,6.60
2017,02,13,17,43,6.60
2017,02,13,17,44,6.60
2017,02,13,17,45,6.60
2017,02,13,17,46,6.60
2017,02,13,17,47,6.60
2017,02,13,17,48,6.50
2017,02,13,17,49,6.50
2017,02,13,17,50,6.50
2017,02,13,17,51,6.50
2017,02,13,17,52,6.40
2017,02,13,17,53,6.40
2017,02,13,17,54,6.30
2017,02,13,17,55,6.30
2017,02,13,17,56,6.30
2017,02,13,17,57,6.20
2017,02,13,17,58,6.20
2017,02,13,17,59,6.20
2017,02,13,18,00,6.20
2017,02,13,18,01,6.10
2017,02,13,18,02,6.10
2017,02,13,18,03,6.10
2017,02,13,18,04,6.10
2017,02,13,18,05,6.10